Precipitable_Water
2.15 2.17 2.25 2.30 2.33 2.34 2.31 2.22 2.18 2.16 2.13 2.11 2.07 2.05 2.07 2.03 1.99 1.94 1.91 1.90 1.91 1.88 1.84 1.86 1.87 1.83 1.76 1.69 1.63 1.57 1.53 1.49 1.51 1.53 1.51 1.51 1.52 1.52 1.50 1.50 1.50 1.49 1.47 1.46 1.46 1.49 1.55 1.63 1.62 1.63 1.64 1.70 1.71 1.74 1.77 1.82 1.89 1.94 1.96 1.96 1.93 1.75 1.72 1.69 1.59 1.59 1.53 1.51 1.49 1.46 1.52 1.54 1.51 1.51 1.43 1.31 1.22 1.16 1.16 1.23 1.33 1.40 1.50 1.54 1.64
2.07 2.20 2.25 2.28 2.29 2.31 2.27 2.20 2.19 2.13 2.07 2.04 2.05 2.01 2.02 2.01 1.97 1.93 1.92 1.88 1.88 1.87 1.83 1.79 1.81 1.79 1.73 1.64 1.57 1.55 1.53 1.50 1.52 1.55 1.54 1.51 1.49 1.47 1.48 1.51 1.49 1.47 1.47 1.50 1.53 1.58 1.66 1.67 1.66 1.67 1.69 1.71 1.73 1.74 1.74 1.77 1.86 1.91 1.95 1.96 1.95 1.85 1.74 1.66 1.65 1.62 1.60 1.58 1.52 1.47 1.47 1.55 1.55 1.51 1.48 1.44 1.39 1.39 1.41 1.37 1.39 1.54 1.61 1.63 1.69
2.18 2.21 2.23 2.24 2.25 2.26 2.23 2.22 2.20 2.14 2.01 1.98 2.01 2.01 2.01 2.00 1.95 1.94 1.92 1.87 1.84 1.84 1.82 1.79 1.76 1.69 1.66 1.62 1.55 1.51 1.49 1.48 1.51 1.54 1.55 1.52 1.47 1.48 1.51 1.52 1.50 1.49 1.49 1.55 1.61 1.65 1.67 1.68 1.66 1.69 1.73 1.75 1.77 1.77 1.75 1.76 1.80 1.84 1.94 1.91 1.88 1.87 1.87 1.82 1.74 1.71 1.69 1.62 1.56 1.55 1.49 1.53 1.54 1.52 1.50 1.48 1.45 1.47 1.48 1.47 1.48 1.60 1.61 1.66 1.69
2.11 2.13 2.19 2.19 2.24 2.25 2.23 2.22 2.18 2.14 2.02 1.98 2.04 2.02 1.99 1.97 1.95 1.91 1.90 1.88 1.84 1.80 1.77 1.73 1.67 1.63 1.61 1.60 1.57 1.52 1.51 1.51 1.52 1.53 1.53 1.50 1.47 1.49 1.49 1.48 1.49 1.50 1.50 1.54 1.59 1.60 1.63 1.67 1.70 1.74 1.77 1.77 1.80 1.78 1.74 1.74 1.78 1.79 1.91 1.96 1.89 1.85 1.87 1.88 1.89 1.83 1.80 1.69 1.59 1.52 1.50 1.62 1.59 1.52 1.50 1.49 1.48 1.48 1.49 1.51 1.55 1.58 1.59 1.64 1.65
2.08 2.12 2.12 2.12 2.13 2.15 2.18 2.16 2.12 2.09 2.02 1.98 1.97 1.97 1.96 1.93 1.90 1.89 1.88 1.87 1.85 1.81 1.73 1.68 1.66 1.63 1.62 1.61 1.58 1.55 1.54 1.55 1.56 1.53 1.49 1.47 1.49 1.47 1.45 1.46 1.50 1.51 1.51 1.56 1.57 1.58 1.62 1.70 1.75 1.75 1.76 1.82 1.80 1.77 1.76 1.76 1.77 1.84 1.90 1.97 1.99 1.96 1.88 1.89 1.86 1.83 1.85 1.80 1.68 1.59 1.52 1.54 1.59 1.59 1.52 1.49 1.50 1.52 1.52 1.56 1.60 1.61 1.60 1.63 1.65
2.05 2.13 2.14 2.11 2.13 2.15 2.11 2.10 2.03 1.93 1.92 1.94 1.94 1.93 1.90 1.88 1.87 1.87 1.86 1.85 1.82 1.80 1.75 1.70 1.66 1.65 1.66 1.64 1.60 1.59 1.57 1.57 1.54 1.51 1.48 1.48 1.47 1.44 1.45 1.48 1.52 1.57 1.59 1.57 1.57 1.56 1.63 1.72 1.76 1.72 1.75 1.78 1.77 1.73 1.75 1.79 1.83 1.77 1.78 1.91 2.00 2.02 1.96 1.90 1.90 1.83 1.79 1.75 1.67 1.68 1.55 1.55 1.58 1.60 1.56 1.53 1.54 1.52 1.52 1.55 1.60 1.65 1.69 1.67 1.69
2.02 2.11 2.17 2.16 2.10 2.10 2.11 2.04 1.97 1.89 1.85 1.91 1.95 1.91 1.86 1.85 1.86 1.84 1.83 1.82 1.79 1.76 1.75 1.74 1.73 1.72 1.73 1.70 1.66 1.62 1.59 1.54 1.50 1.50 1.48 1.48 1.48 1.48 1.51 1.56 1.58 1.61 1.63 1.62 1.58 1.62 1.67 1.72 1.73 1.75 1.76 1.76 1.77 1.74 1.74 1.81 1.87 1.78 1.76 1.85 1.93 1.97 2.00 2.00 1.97 1.86 1.82 1.71 1.68 1.70 1.59 1.55 1.59 1.60 1.58 1.57 1.53 1.54 1.53 1.53 1.54 1.62 1.67 1.71 1.72
1.95 2.03 2.09 2.13 2.10 2.07 2.06 1.99 1.94 1.88 1.83 1.86 1.92 1.90 1.85 1.84 1.84 1.81 1.80 1.81 1.79 1.78 1.76 1.74 1.75 1.76 1.75 1.73 1.72 1.68 1.63 1.58 1.54 1.52 1.51 1.51 1.51 1.53 1.56 1.59 1.63 1.65 1.67 1.67 1.66 1.68 1.71 1.74 1.70 1.75 1.81 1.80 1.81 1.80 1.81 1.82 1.84 1.87 1.92 1.91 1.92 1.93 1.96 1.93 1.91 1.91 1.91 1.76 1.68 1.69 1.65 1.60 1.62 1.61 1.60 1.60 1.55 1.53 1.52 1.51 1.52 1.55 1.63 1.67 1.71
1.85 1.93 1.99 2.03 2.04 2.02 2.02 1.99 1.93 1.90 1.85 1.85 1.90 1.88 1.86 1.85 1.83 1.81 1.78 1.78 1.79 1.80 1.76 1.75 1.75 1.75 1.75 1.75 1.74 1.74 1.72 1.69 1.63 1.58 1.55 1.55 1.54 1.56 1.58 1.59 1.61 1.66 1.72 1.71 1.68 1.70 1.71 1.72 1.74 1.78 1.79 1.78 1.78 1.81 1.84 1.84 1.88 1.92 1.93 1.94 1.98 1.97 1.92 1.92 1.88 1.85 1.93 1.84 1.74 1.74 1.68 1.62 1.60 1.58 1.65 1.56 1.58 1.60 1.54 1.53 1.52 1.53 1.58 1.64 1.65
1.82 1.86 1.93 1.98 2.01 2.00 1.97 1.95 1.92 1.89 1.87 1.83 1.85 1.88 1.90 1.88 1.83 1.81 1.79 1.79 1.80 1.80 1.77 1.73 1.72 1.73 1.77 1.78 1.79 1.78 1.75 1.73 1.69 1.64 1.61 1.57 1.58 1.60 1.60 1.60 1.63 1.67 1.70 1.69 1.68 1.69 1.69 1.69 1.73 1.79 1.81 1.78 1.74 1.80 1.81 1.82 1.87 1.91 1.97 1.94 1.93 2.02 1.98 1.92 1.89 1.85 1.93 1.92 1.84 1.78 1.75 1.62 1.55 1.55 1.60 1.60 1.56 1.60 1.61 1.58 1.55 1.55 1.61 1.60 1.60
1.76 1.81 1.88 1.96 2.00 1.97 1.94 1.90 1.90 1.89 1.88 1.87 1.83 1.86 1.91 1.90 1.89 1.87 1.84 1.83 1.84 1.81 1.77 1.75 1.74 1.76 1.79 1.80 1.80 1.79 1.77 1.74 1.71 1.66 1.61 1.60 1.58 1.60 1.64 1.66 1.64 1.68 1.70 1.69 1.71 1.70 1.65 1.70 1.75 1.80 1.86 1.81 1.78 1.79 1.80 1.80 1.87 1.87 1.95 1.94 1.89 1.91 1.93 1.91 1.89 1.89 1.92 1.88 1.83 1.82 1.78 1.66 1.55 1.52 1.52 1.58 1.53 1.59 1.64 1.59 1.50 1.52 1.56 1.55 1.58
1.75 1.78 1.87 1.95 1.98 1.93 1.88 1.86 1.88 1.88 1.85 1.83 1.80 1.83 1.88 1.90 1.88 1.88 1.86 1.84 1.82 1.80 1.77 1.75 1.76 1.78 1.80 1.81 1.80 1.77 1.72 1.68 1.64 1.62 1.60 1.59 1.59 1.60 1.62 1.65 1.66 1.66 1.70 1.73 1.74 1.71 1.79 1.82 1.85 1.85 1.87 1.80 1.78 1.77 1.81 1.84 1.83 1.83 1.88 1.96 1.91 1.87 1.89 1.92 1.86 1.87 1.89 1.95 1.89 1.80 1.80 1.78 1.67 1.49 1.44 1.47 1.49 1.58 1.69 1.63 1.57 1.55 1.51 1.52 1.54
1.73 1.74 1.79 1.93 1.98 1.92 1.89 1.85 1.85 1.86 1.88 1.81 1.81 1.82 1.83 1.83 1.82 1.81 1.82 1.81 1.80 1.78 1.76 1.75 1.75 1.77 1.78 1.80 1.80 1.78 1.73 1.69 1.64 1.62 1.61 1.60 1.58 1.57 1.62 1.64 1.69 1.73 1.74 1.77 1.82 1.86 1.90 1.83 1.73 1.80 1.81 1.82 1.79 1.83 1.76 1.78 1.83 1.87 1.89 1.92 1.94 1.94 1.89 1.94 1.90 1.87 1.89 1.95 1.97 1.92 1.82 1.84 1.81 1.59 1.49 1.47 1.45 1.51 1.62 1.56 1.57 1.55 1.50 1.52 1.50
1.70 1.69 1.72 1.86 1.96 1.88 1.82 1.84 1.82 1.84 1.87 1.83 1.78 1.82 1.82 1.79 1.76 1.75 1.77 1.79 1.80 1.78 1.78 1.76 1.76 1.75 1.76 1.77 1.80 1.77 1.75 1.73 1.73 1.69 1.66 1.61 1.62 1.66 1.68 1.72 1.73 1.75 1.79 1.84 1.95 1.93 1.83 1.82 1.78 1.80 1.82 1.84 1.82 1.81 1.86 1.82 1.80 1.86 1.88 1.88 1.90 1.94 1.98 1.93 1.88 1.88 1.88 1.93 1.97 1.98 1.91 1.83 1.89 1.71 1.56 1.51 1.48 1.56 1.60 1.60 1.58 1.55 1.51 1.52 1.53
1.68 1.69 1.72 1.80 1.87 1.86 1.82 1.84 1.81 1.81 1.83 1.85 1.83 1.80 1.81 1.79 1.77 1.77 1.78 1.80 1.82 1.82 1.81 1.81 1.79 1.77 1.77 1.77 1.77 1.76 1.75 1.77 1.75 1.72 1.69 1.72 1.76 1.78 1.78 1.77 1.78 1.81 1.87 2.03 1.94 1.85 1.91 1.95 1.93 1.87 1.86 1.86 1.87 1.84 1.87 1.90 1.87 1.84 1.82 1.87 1.91 1.90 1.99 1.87 1.80 1.79 1.85 1.90 1.97 2.04 2.01 1.91 1.81 1.74 1.63 1.55 1.49 1.49 1.53 1.56 1.59 1.58 1.52 1.51 1.53
1.72 1.72 1.75 1.79 1.85 1.81 1.78 1.81 1.79 1.83 1.85 1.83 1.81 1.76 1.78 1.80 1.82 1.82 1.82 1.83 1.85 1.84 1.82 1.79 1.79 1.79 1.79 1.79 1.78 1.80 1.78 1.77 1.77 1.78 1.81 1.84 1.83 1.82 1.80 1.79 1.84 1.89 1.97 1.98 1.82 1.89 1.95 1.90 1.91 1.96 1.97 1.93 1.82 1.75 1.80 1.85 1.89 1.86 1.81 1.84 1.89 1.91 1.97 1.86 1.83 1.81 1.78 1.81 1.91 1.96 1.94 1.94 1.84 1.76 1.66 1.58 1.52 1.50 1.49 1.50 1.53 1.53 1.54 1.49 1.53
1.71 1.75 1.74 1.73 1.74 1.79 1.78 1.81 1.80 1.82 1.81 1.81 1.77 1.75 1.76 1.79 1.84 1.84 1.84 1.83 1.85 1.80 1.79 1.79 1.79 1.80 1.82 1.83 1.83 1.80 1.81 1.82 1.83 1.86 1.86 1.82 1.80 1.80 1.81 1.85 1.89 1.95 2.01 1.89 1.75 1.92 1.88 1.86 1.93 1.99 1.95 2.00 1.86 1.81 1.90 1.96 1.94 1.91 1.87 1.82 1.88 1.93 2.01 1.93 1.87 1.86 1.82 1.86 1.91 1.93 1.93 1.95 1.91 1.81 1.71 1.62 1.52 1.49 1.50 1.53 1.54 1.52 1.53 1.52 1.54
1.67 1.70 1.67 1.69 1.68 1.72 1.74 1.70 1.71 1.75 1.79 1.73 1.71 1.76 1.76 1.78 1.82 1.83 1.83 1.83 1.81 1.79 1.77 1.78 1.79 1.79 1.81 1.81 1.81 1.81 1.84 1.83 1.81 1.81 1.78 1.75 1.74 1.75 1.78 1.78 1.79 1.85 1.94 1.79 1.83 1.93 1.83 1.92 1.97 1.97 2.00 2.04 1.98 1.99 2.01 1.99 2.01 1.98 1.96 1.91 1.89 1.88 1.93 1.99 1.89 1.88 1.85 1.85 1.90 1.94 1.96 1.93 1.91 1.86 1.81 1.69 1.54 1.48 1.49 1.50 1.51 1.47 1.49 1.50 1.51
1.62 1.66 1.65 1.65 1.63 1.66 1.75 1.73 1.69 1.69 1.75 1.71 1.80 1.78 1.76 1.79 1.78 1.77 1.78 1.78 1.76 1.76 1.75 1.76 1.76 1.77 1.77 1.77 1.79 1.80 1.81 1.81 1.78 1.76 1.75 1.76 1.75 1.72 1.73 1.79 1.81 1.89 1.96 1.94 1.90 1.87 1.86 1.91 1.92 1.95 2.02 2.02 2.01 1.96 1.95 1.97 2.00 2.01 2.00 1.96 1.90 1.86 1.88 1.99 1.97 1.84 1.89 1.94 1.94 1.95 1.94 1.91 1.90 1.88 1.85 1.75 1.59 1.49 1.44 1.47 1.48 1.47 1.47 1.47 1.50
1.61 1.65 1.63 1.65 1.64 1.66 1.70 1.73 1.71 1.71 1.73 1.73 1.73 1.77 1.80 1.77 1.76 1.75 1.73 1.72 1.71 1.70 1.70 1.70 1.72 1.71 1.72 1.73 1.76 1.79 1.80 1.82 1.81 1.80 1.77 1.74 1.75 1.78 1.83 1.84 1.89 1.95 1.99 1.99 1.99 1.97 1.94 1.92 1.88 1.91 1.94 2.00 2.02 2.01 2.00 1.93 1.95 1.98 1.99 2.00 1.93 1.89 1.85 1.84 1.94 1.99 1.97 2.01 2.01 1.94 1.94 1.94 1.90 1.89 1.89 1.85 1.69 1.50 1.42 1.41 1.44 1.47 1.48 1.47 1.49
1.57 1.61 1.64 1.65 1.64 1.63 1.66 1.68 1.68 1.67 1.72 1.75 1.80 1.81 1.82 1.79 1.77 1.73 1.72 1.69 1.69 1.67 1.66 1.68 1.68 1.72 1.73 1.73 1.76 1.81 1.85 1.87 1.84 1.84 1.78 1.83 1.85 1.84 1.89 1.90 1.93 2.00 2.02 1.98 1.95 1.95 1.97 1.93 1.86 1.89 1.93 1.95 1.95 1.90 1.87 1.86 1.89 1.91 1.89 1.88 1.86 1.88 1.89 1.83 1.80 1.83 1.92 1.98 2.00 2.01 2.00 1.96 1.91 1.89 1.91 1.91 1.81 1.65 1.48 1.43 1.41 1.44 1.46 1.45 1.45
1.55 1.56 1.64 1.67 1.64 1.65 1.65 1.66 1.68 1.70 1.69 1.71 1.76 1.79 1.79 1.80 1.78 1.75 1.71 1.70 1.71 1.69 1.68 1.68 1.69 1.74 1.74 1.76 1.79 1.83 1.84 1.83 1.83 1.78 1.82 1.85 1.88 1.91 1.94 1.91 1.92 1.92 1.94 1.95 1.90 1.91 1.90 1.88 1.85 1.82 1.81 1.79 1.76 1.76 1.74 1.72 1.72 1.74 1.74 1.75 1.79 1.81 1.85 1.84 1.81 1.80 1.85 1.91 1.95 1.97 1.95 1.97 1.93 1.91 1.90 1.91 1.88 1.79 1.61 1.47 1.44 1.42 1.45 1.45 1.44
1.48 1.50 1.55 1.66 1.67 1.64 1.68 1.66 1.69 1.75 1.74 1.71 1.75 1.78 1.76 1.72 1.70 1.70 1.77 1.74 1.75 1.71 1.73 1.73 1.74 1.74 1.75 1.76 1.78 1.80 1.81 1.83 1.83 1.81 1.80 1.84 1.89 1.93 1.93 1.91 1.90 1.88 1.90 1.90 1.87 1.84 1.78 1.67 1.68 1.68 1.66 1.67 1.66 1.64 1.63 1.62 1.64 1.64 1.67 1.70 1.74 1.79 1.82 1.85 1.81 1.81 1.81 1.86 1.89 1.91 1.87 1.92 1.98 1.95 1.92 1.91 1.91 1.87 1.81 1.57 1.47 1.45 1.42 1.45 1.46
1.43 1.47 1.50 1.60 1.63 1.58 1.62 1.67 1.68 1.72 1.69 1.70 1.74 1.73 1.75 1.74 1.72 1.74 1.80 1.76 1.76 1.73 1.74 1.74 1.76 1.74 1.74 1.73 1.73 1.75 1.77 1.81 1.81 1.81 1.81 1.84 1.85 1.84 1.81 1.82 1.83 1.85 1.88 1.86 1.81 1.75 1.67 1.61 1.57 1.58 1.57 1.56 1.56 1.55 1.59 1.64 1.67 1.69 1.71 1.74 1.75 1.76 1.79 1.82 1.84 1.80 1.79 1.84 1.85 1.86 1.86 1.88 1.95 2.00 1.97 1.93 1.92 1.91 1.88 1.78 1.55 1.49 1.47 1.43 1.46
1.48 1.54 1.55 1.51 1.53 1.52 1.56 1.60 1.65 1.67 1.67 1.67 1.70 1.71 1.75 1.77 1.80 1.81 1.75 1.75 1.73 1.73 1.73 1.72 1.73 1.71 1.73 1.72 1.75 1.74 1.73 1.73 1.74 1.75 1.75 1.76 1.75 1.74 1.75 1.78 1.81 1.81 1.82 1.79 1.75 1.68 1.62 1.57 1.59 1.58 1.54 1.49 1.47 1.52 1.58 1.64 1.72 1.75 1.77 1.79 1.79 1.78 1.76 1.77 1.80 1.82 1.78 1.76 1.83 1.84 1.85 1.86 1.92 2.00 2.01 1.96 1.96 1.94 1.90 1.84 1.71 1.54 1.53 1.50 1.47
1.52 1.48 1.50 1.54 1.50 1.50 1.52 1.55 1.57 1.57 1.62 1.69 1.65 1.71 1.71 1.70 1.74 1.79 1.76 1.74 1.73 1.73 1.72 1.70 1.70 1.69 1.67 1.69 1.70 1.70 1.70 1.66 1.64 1.63 1.65 1.69 1.68 1.70 1.73 1.75 1.75 1.75 1.78 1.73 1.70 1.65 1.61 1.57 1.55 1.58 1.58 1.57 1.52 1.54 1.58 1.61 1.61 1.65 1.70 1.78 1.84 1.88 1.83 1.76 1.76 1.78 1.81 1.77 1.75 1.81 1.86 1.86 1.89 1.98 2.02 1.96 1.94 1.96 1.94 1.89 1.86 1.70 1.57 1.57 1.55
1.41 1.44 1.54 1.54 1.56 1.56 1.58 1.60 1.53 1.53 1.56 1.63 1.66 1.65 1.64 1.69 1.72 1.76 1.75 1.73 1.74 1.70 1.67 1.69 1.68 1.69 1.68 1.67 1.64 1.63 1.62 1.62 1.60 1.60 1.59 1.65 1.64 1.68 1.69 1.71 1.69 1.69 1.73 1.68 1.63 1.61 1.58 1.56 1.57 1.60 1.62 1.58 1.55 1.56 1.60 1.61 1.61 1.58 1.59 1.61 1.73 1.80 1.82 1.73 1.68 1.72 1.76 1.80 1.78 1.77 1.85 1.89 1.90 1.91 1.97 1.97 1.91 1.94 1.97 1.92 1.86 1.82 1.70 1.68 1.60
1.40 1.41 1.52 1.57 1.60 1.58 1.62 1.63 1.58 1.58 1.59 1.65 1.65 1.63 1.65 1.66 1.69 1.71 1.72 1.73 1.71 1.68 1.70 1.70 1.71 1.69 1.71 1.71 1.71 1.67 1.64 1.61 1.61 1.61 1.61 1.64 1.62 1.64 1.65 1.64 1.64 1.63 1.65 1.63 1.58 1.59 1.59 1.61 1.60 1.60 1.57 1.56 1.54 1.54 1.54 1.55 1.55 1.55 1.50 1.47 1.48 1.53 1.54 1.51 1.48 1.51 1.60 1.70 1.78 1.79 1.82 1.88 1.92 1.92 1.93 1.96 1.95 1.92 1.93 1.93 1.90 1.88 1.85 1.76 1.73
1.34 1.36 1.44 1.53 1.60 1.62 1.65 1.59 1.60 1.55 1.57 1.63 1.60 1.64 1.67 1.66 1.69 1.69 1.69 1.72 1.70 1.68 1.71 1.74 1.71 1.73 1.75 1.75 1.74 1.70 1.70 1.68 1.64 1.64 1.65 1.62 1.65 1.64 1.62 1.60 1.61 1.60 1.60 1.57 1.57 1.57 1.59 1.59 1.57 1.56 1.56 1.53 1.51 1.47 1.49 1.50 1.47 1.40 1.31 1.24 1.23 1.24 1.27 1.28 1.28 1.30 1.34 1.46 1.66 1.74 1.77 1.83 1.90 1.95 1.94 1.95 1.96 1.92 1.90 1.92 1.91 1.88 1.87 1.84 1.80
1.31 1.37 1.40 1.43 1.53 1.61 1.58 1.56 1.56 1.53 1.55 1.57 1.58 1.60 1.63 1.64 1.67 1.67 1.69 1.71 1.69 1.72 1.71 1.67 1.70 1.72 1.71 1.73 1.74 1.73 1.70 1.67 1.66 1.70 1.68 1.66 1.67 1.66 1.62 1.62 1.59 1.60 1.58 1.53 1.56 1.55 1.56 1.56 1.56 1.54 1.50 1.48 1.43 1.42 1.41 1.37 1.30 1.25 1.21 1.16 1.14 1.14 1.15 1.14 1.17 1.21 1.25 1.30 1.44 1.61 1.67 1.74 1.81 1.90 1.96 1.96 1.95 1.92 1.91 1.97 1.94 1.94 1.86 1.80 1.78
1.34 1.33 1.39 1.42 1.50 1.53 1.52 1.54 1.54 1.54 1.54 1.51 1.57 1.60 1.64 1.63 1.67 1.69 1.71 1.68 1.71 1.72 1.68 1.66 1.67 1.69 1.69 1.70 1.69 1.69 1.69 1.69 1.70 1.73 1.75 1.71 1.70 1.68 1.65 1.65 1.62 1.62 1.62 1.56 1.58 1.54 1.55 1.54 1.52 1.49 1.46 1.44 1.42 1.43 1.36 1.24 1.20 1.20 1.20 1.14 1.10 1.10 1.09 1.11 1.12 1.16 1.19 1.25 1.32 1.43 1.53 1.58 1.66 1.78 1.90 1.95 1.97 1.98 1.94 1.94 1.94 1.95 1.91 1.82 1.80
1.25 1.27 1.37 1.46 1.47 1.48 1.51 1.53 1.52 1.53 1.53 1.51 1.54 1.57 1.59 1.61 1.65 1.68 1.67 1.69 1.69 1.66 1.64 1.64 1.64 1.68 1.71 1.69 1.68 1.67 1.67 1.68 1.70 1.73 1.74 1.71 1.71 1.70 1.66 1.62 1.61 1.64 1.63 1.58 1.54 1.54 1.53 1.53 1.50 1.49 1.47 1.45 1.41 1.34 1.26 1.17 1.14 1.14 1.11 1.09 1.11 1.07 1.06 1.04 1.03 1.06 1.08 1.14 1.23 1.31 1.38 1.43 1.47 1.55 1.73 1.89 1.95 1.97 1.93 1.91 1.95 1.99 1.95 1.92 1.91
1.26 1.29 1.33 1.39 1.41 1.48 1.50 1.50 1.51 1.50 1.50 1.48 1.49 1.52 1.57 1.62 1.61 1.62 1.65 1.66 1.66 1.63 1.59 1.62 1.64 1.66 1.67 1.65 1.64 1.65 1.67 1.67 1.70 1.71 1.85 1.73 1.68 1.65 1.61 1.59 1.59 1.60 1.61 1.58 1.54 1.54 1.52 1.47 1.45 1.47 1.44 1.40 1.32 1.21 1.18 1.15 1.10 1.07 1.08 1.12 1.08 1.03 1.02 1.00 1.00 1.00 1.01 1.03 1.09 1.17 1.24 1.29 1.32 1.35 1.48 1.68 1.86 1.96 1.96 1.91 1.91 1.93 1.93 1.93 1.91
1.26 1.32 1.36 1.34 1.42 1.48 1.50 1.49 1.48 1.47 1.48 1.50 1.49 1.47 1.53 1.60 1.62 1.64 1.66 1.66 1.66 1.62 1.60 1.63 1.65 1.65 1.63 1.62 1.64 1.66 1.69 1.72 1.70 1.69 1.69 1.64 1.61 1.56 1.64 1.65 1.68 1.65 1.58 1.57 1.52 1.51 1.44 1.41 1.40 1.38 1.35 1.31 1.21 1.14 1.12 1.06 1.07 1.13 1.16 1.13 1.08 1.05 1.04 0.99 1.01 1.01 1.00 0.98 0.99 1.02 1.09 1.14 1.18 1.21 1.26 1.45 1.66 1.81 1.89 1.92 1.91 1.89 1.87 1.85 1.85
1.30 1.32 1.31 1.34 1.39 1.42 1.48 1.45 1.48 1.48 1.49 1.47 1.48 1.46 1.52 1.58 1.60 1.64 1.66 1.64 1.64 1.60 1.62 1.66 1.66 1.65 1.65 1.64 1.67 1.70 1.71 1.71 1.71 1.65 1.60 1.56 1.54 1.54 1.58 1.63 1.66 1.62 1.54 1.53 1.48 1.44 1.39 1.34 1.34 1.29 1.29 1.27 1.21 1.18 1.13 1.05 1.08 1.11 1.15 1.15 1.05 1.03 1.09 1.07 1.05 1.04 1.06 1.04 1.02 0.99 0.98 1.01 1.08 1.12 1.14 1.21 1.39 1.56 1.72 1.81 1.87 1.89 1.86 1.83 1.85
1.29 1.31 1.32 1.37 1.38 1.44 1.47 1.43 1.47 1.47 1.47 1.48 1.48 1.50 1.54 1.57 1.60 1.64 1.65 1.66 1.62 1.58 1.62 1.65 1.65 1.66 1.65 1.65 1.70 1.74 1.72 1.71 1.71 1.70 1.57 1.54 1.52 1.59 1.61 1.72 1.74 1.67 1.58 1.50 1.45 1.37 1.33 1.29 1.31 1.27 1.17 1.17 1.18 1.19 1.17 1.07 1.11 1.10 1.13 1.12 1.07 1.04 1.06 1.10 1.11 1.12 1.13 1.15 1.14 1.11 1.06 1.02 1.00 1.01 1.06 1.14 1.24 1.32 1.50 1.71 1.79 1.82 1.84 1.81 1.78
1.32 1.33 1.33 1.33 1.34 1.40 1.43 1.40 1.40 1.43 1.45 1.47 1.50 1.52 1.58 1.58 1.62 1.68 1.72 1.71 1.62 1.60 1.63 1.64 1.64 1.63 1.67 1.67 1.71 1.78 1.77 1.77 1.80 1.74 1.62 1.53 1.54 1.56 1.70 1.66 1.70 1.65 1.58 1.48 1.41 1.37 1.28 1.22 1.24 1.25 1.20 1.13 1.13 1.15 1.14 1.11 1.07 1.06 1.06 1.09 1.07 1.03 1.02 1.05 1.09 1.12 1.17 1.14 1.13 1.15 1.17 1.14 1.07 1.02 1.03 1.04 1.15 1.23 1.30 1.49 1.69 1.76 1.79 1.81 1.75
1.36 1.35 1.36 1.36 1.32 1.36 1.39 1.39 1.42 1.46 1.48 1.49 1.49 1.55 1.60 1.62 1.66 1.70 1.72 1.68 1.66 1.65 1.67 1.66 1.60 1.63 1.66 1.68 1.75 1.77 1.77 1.77 1.77 1.73 1.65 1.61 1.62 1.68 1.69 1.64 1.63 1.59 1.51 1.43 1.38 1.35 1.26 1.18 1.14 1.20 1.18 1.11 1.07 1.09 1.08 1.11 1.10 1.03 1.01 1.06 1.04 1.04 1.05 1.09 1.12 1.14 1.13 1.12 1.15 1.14 1.19 1.24 1.26 1.18 1.07 1.04 1.05 1.13 1.22 1.32 1.49 1.65 1.75 1.76 1.76
1.38 1.39 1.38 1.39 1.39 1.39 1.40 1.42 1.46 1.48 1.50 1.52 1.56 1.60 1.66 1.65 1.70 1.71 1.70 1.67 1.65 1.68 1.66 1.61 1.68 1.72 1.68 1.68 1.75 1.78 1.77 1.79 1.74 1.69 1.60 1.58 1.68 1.74 1.63 1.61 1.59 1.52 1.44 1.39 1.30 1.24 1.15 1.11 1.06 1.07 1.12 1.10 1.05 1.06 1.11 1.14 1.09 1.05 0.99 1.04 1.02 1.03 1.08 1.10 1.14 1.15 1.15 1.16 1.16 1.17 1.17 1.19 1.24 1.31 1.32 1.24 1.14 1.12 1.15 1.21 1.28 1.44 1.56 1.68 1.72
1.38 1.40 1.39 1.39 1.38 1.39 1.40 1.44 1.48 1.52 1.55 1.57 1.60 1.60 1.60 1.55 1.56 1.66 1.62 1.59 1.63 1.61 1.60 1.61 1.75 1.77 1.79 1.74 1.75 1.83 1.84 1.76 1.70 1.65 1.62 1.64 1.67 1.56 1.52 1.53 1.52 1.49 1.37 1.25 1.16 1.06 0.97 0.95 0.95 0.94 0.94 0.99 1.02 1.03 1.14 1.11 1.03 1.00 0.96 1.01 1.03 1.04 1.06 1.08 1.10 1.10 1.12 1.11 1.10 1.12 1.10 1.12 1.15 1.20 1.26 1.28 1.28 1.25 1.25 1.27 1.25 1.27 1.34 1.41 1.47
1.40 1.41 1.39 1.37 1.38 1.37 1.39 1.38 1.48 1.56 1.53 1.50 1.52 1.52 1.45 1.44 1.51 1.55 1.46 1.46 1.46 1.49 1.50 1.54 1.56 1.62 1.63 1.65 1.68 1.76 1.86 1.74 1.65 1.59 1.56 1.63 1.62 1.56 1.48 1.47 1.46 1.38 1.24 1.09 0.99 0.91 0.89 0.86 0.84 0.86 0.84 0.83 0.87 1.00 1.08 1.06 0.93 0.88 0.93 0.94 0.98 1.06 1.05 1.07 1.06 1.06 1.05 1.06 1.04 1.01 1.05 1.05 1.07 1.10 1.16 1.21 1.24 1.26 1.26 1.25 1.24 1.24 1.30 1.43 1.45
1.32 1.39 1.36 1.37 1.40 1.43 1.42 1.44 1.52 1.54 1.52 1.50 1.50 1.49 1.47 1.41 1.39 1.41 1.42 1.40 1.37 1.36 1.42 1.49 1.53 1.52 1.50 1.50 1.55 1.63 1.69 1.66 1.61 1.56 1.53 1.47 1.47 1.40 1.36 1.32 1.27 1.16 1.09 0.97 0.90 0.87 0.87 0.89 0.92 0.84 0.90 0.80 0.80 0.94 1.00 0.95 0.86 0.79 0.71 0.77 0.88 0.95 1.04 1.01 0.99 1.01 1.03 1.04 1.02 0.96 0.97 0.96 0.97 1.02 1.09 1.13 1.16 1.17 1.19 1.22 1.25 1.25 1.28 1.32 1.39
1.29 1.30 1.36 1.41 1.43 1.42 1.42 1.45 1.48 1.48 1.49 1.51 1.50 1.42 1.45 1.46 1.42 1.42 1.40 1.39 1.43 1.46 1.50 1.53 1.56 1.50 1.45 1.43 1.46 1.49 1.55 1.55 1.54 1.47 1.36 1.32 1.31 1.28 1.22 1.16 1.08 1.00 0.89 0.84 0.84 0.84 0.90 0.92 0.94 0.88 0.85 0.90 0.87 0.98 0.98 0.97 0.79 0.81 0.77 0.67 0.68 0.68 0.85 0.89 0.92 0.97 1.00 0.98 0.99 0.94 0.93 0.89 0.89 0.92 0.96 0.99 1.03 1.07 1.12 1.16 1.16 1.18 1.20 1.22 1.23
1.24 1.26 1.33 1.37 1.41 1.39 1.38 1.38 1.39 1.43 1.46 1.49 1.46 1.49 1.50 1.51 1.52 1.49 1.45 1.38 1.32 1.36 1.44 1.50 1.49 1.45 1.37 1.39 1.39 1.39 1.43 1.46 1.46 1.36 1.32 1.34 1.26 1.16 1.11 1.03 0.97 0.93 0.87 0.85 0.87 0.86 0.90 0.93 0.98 0.98 0.97 0.86 0.87 0.89 0.98 0.94 0.84 0.76 0.61 0.60 0.62 0.61 0.58 0.72 0.80 0.95 1.02 1.01 0.96 0.94 0.92 0.89 0.88 0.90 0.92 0.91 0.95 0.99 1.01 1.04 1.07 1.11 1.13 1.16 1.18
1.17 1.21 1.29 1.33 1.34 1.31 1.32 1.33 1.34 1.36 1.41 1.44 1.45 1.50 1.51 1.47 1.47 1.44 1.41 1.34 1.30 1.27 1.26 1.25 1.31 1.33 1.32 1.29 1.28 1.33 1.35 1.35 1.33 1.31 1.29 1.17 1.11 1.05 0.99 0.95 0.91 0.93 0.95 0.92 0.88 0.93 1.00 1.05 1.02 1.01 1.01 0.93 0.86 0.89 0.96 0.98 0.93 0.95 0.74 0.65 0.61 0.58 0.64 0.78 0.78 0.92 0.99 1.02 0.97 0.94 0.93 0.90 0.87 0.88 0.91 0.93 0.99 1.00 1.03 1.03 1.05 1.07 1.08 1.08 1.09
1.16 1.24 1.30 1.30 1.29 1.30 1.31 1.32 1.33 1.35 1.35 1.38 1.42 1.45 1.40 1.33 1.26 1.16 1.07 1.04 1.01 1.03 0.99 1.02 1.15 1.18 1.19 1.33 1.38 1.42 1.41 1.38 1.35 1.33 1.26 1.14 1.05 1.03 0.98 0.94 0.92 0.92 0.93 0.94 0.95 1.01 1.05 1.09 1.15 1.06 1.01 1.04 0.93 0.87 0.84 1.02 0.98 0.94 0.92 0.89 0.76 0.66 0.72 0.89 0.74 0.69 0.88 0.93 0.92 0.90 0.91 0.90 0.88 0.87 0.88 0.89 0.92 0.96 0.99 0.99 1.01 1.00 1.02 1.01 1.01
1.16 1.28 1.32 1.30 1.30 1.30 1.29 1.28 1.27 1.27 1.32 1.34 1.38 1.39 1.33 1.29 1.22 1.14 1.09 1.02 0.97 1.03 1.17 1.27 1.30 1.29 1.31 1.29 1.33 1.40 1.42 1.38 1.34 1.32 1.21 1.16 1.10 1.03 0.97 0.95 0.95 0.94 0.96 0.95 0.95 0.97 1.12 1.15 1.16 1.03 1.00 1.01 0.96 0.81 0.77 0.85 0.97 0.95 0.95 0.97 0.96 1.02 1.04 0.87 0.72 0.72 0.63 0.77 0.83 0.80 0.82 0.85 0.85 0.81 0.80 0.81 0.83 0.86 0.91 0.95 0.93 0.93 0.94 0.96 0.96
1.19 1.27 1.28 1.32 1.30 1.28 1.28 1.26 1.26 1.26 1.29 1.32 1.35 1.38 1.28 1.23 1.19 1.16 1.16 1.11 1.08 1.10 1.21 1.30 1.36 1.33 1.27 1.28 1.30 1.32 1.35 1.35 1.33 1.31 1.27 1.21 1.13 1.04 0.96 0.94 0.93 0.97 0.96 0.97 1.06 1.08 1.06 1.03 1.06 1.05 1.06 1.01 0.98 0.89 0.85 0.91 0.82 0.93 1.05 1.02 1.01 1.04 1.00 0.97 0.94 0.73 0.65 0.59 0.68 0.84 0.88 0.84 0.85 0.83 0.83 0.80 0.78 0.77 0.78 0.81 0.85 0.87 0.89 0.89 0.89
1.20 1.21 1.24 1.29 1.31 1.32 1.29 1.26 1.23 1.24 1.28 1.32 1.33 1.35 1.32 1.26 1.21 1.20 1.16 1.18 1.19 1.22 1.32 1.39 1.36 1.35 1.28 1.30 1.30 1.31 1.34 1.37 1.36 1.31 1.28 1.22 1.11 1.02 0.93 0.93 0.94 0.96 0.99 1.01 0.93 0.89 0.93 0.94 0.99 0.97 0.94 0.95 0.95 0.94 0.89 0.91 0.94 0.96 1.03 0.99 0.99 0.96 0.95 0.93 0.90 0.88 0.74 0.66 0.66 0.66 0.70 0.82 0.86 0.88 0.86 0.89 0.89 0.85 0.81 0.77 0.77 0.78 0.80 0.82 0.85
1.19 1.24 1.29 1.32 1.33 1.32 1.27 1.24 1.20 1.24 1.29 1.31 1.33 1.34 1.34 1.32 1.25 1.21 1.15 1.14 1.18 1.23 1.30 1.31 1.32 1.34 1.27 1.26 1.29 1.29 1.30 1.32 1.32 1.32 1.24 1.20 1.15 1.03 0.97 0.97 0.98 1.02 1.02 0.97 0.90 0.86 0.87 0.90 0.91 0.91 0.94 0.91 0.94 0.96 0.94 0.97 0.98 1.06 1.01 1.01 0.91 0.88 0.87 0.88 0.88 0.86 0.84 0.78 0.63 0.63 0.70 0.67 0.65 0.78 0.87 0.86 0.87 0.88 0.82 0.78 0.76 0.76 0.75 0.78 0.80
1.22 1.24 1.26 1.29 1.30 1.29 1.25 1.21 1.20 1.25 1.29 1.32 1.34 1.34 1.36 1.35 1.25 1.20 1.17 1.14 1.17 1.20 1.19 1.22 1.28 1.30 1.26 1.25 1.27 1.28 1.31 1.29 1.27 1.23 1.21 1.19 1.13 1.04 1.02 1.03 1.02 1.04 1.00 0.93 0.89 0.86 0.87 0.89 0.92 0.91 0.88 0.87 0.92 0.93 0.91 0.93 0.97 1.03 1.01 0.95 0.90 0.86 0.83 0.77 0.79 0.81 0.77 0.71 0.70 0.69 0.72 0.77 0.73 0.68 0.83 0.87 0.89 0.89 0.88 0.81 0.77 0.74 0.74 0.76 0.78
Wind_Speed
16 18 19 20 20 21 21 21 20 19 19 19 19 18 18 18 17 16 16 16 16 16 15 15 15 15 15 14 14 14 13 13 12 11 10 10 9 9 8 8 8 8 8 9 9 9 9 9 10 10 9 9 9 9 9 9 9 9 8 8 8 9 9 9 9 9 10 10 10 10 10 10 9 9 8 8 8 7 6 6 6 6 6 7 8
19 19 19 20 21 21 21 19 18 18 18 18 18 18 17 17 16 16 16 16 15 15 15 15 15 15 14 14 13 13 13 12 11 10 9 9 8 8 8 8 7 8 8 8 9 9 9 9 9 9 9 9 9 9 9 9 9 9 8 7 7 7 7 8 8 8 9 9 9 9 9 10 10 9 9 9 8 8 7 7 7 7 8 8 9
19 19 19 20 20 19 19 18 18 17 17 17 17 17 16 16 16 16 15 15 15 15 15 15 15 14 14 13 13 12 12 11 10 9 9 8 8 7 7 7 7 7 7 8 8 8 8 8 8 8 8 9 9 8 8 8 8 8 8 7 6 6 6 6 6 6 7 8 9 9 9 9 9 9 8 8 8 8 7 7 8 8 8 9 9
18 18 19 19 18 18 18 17 17 17 17 16 16 16 15 15 15 15 15 15 15 14 14 15 14 14 13 13 12 11 11 10 9 9 8 7 7 7 7 7 7 7 7 7 7 8 8 8 8 8 8 8 8 8 8 8 8 8 7 7 6 5 5 5 5 5 6 7 8 8 8 8 8 8 8 8 8 8 7 8 8 8 9 9 9
18 18 18 18 17 17 17 17 16 16 16 16 15 15 15 15 15 15 14 14 14 14 14 14 14 13 12 12 11 11 10 9 9 8 7 7 7 6 6 6 6 6 6 7 7 7 7 7 8 8 8 7 7 7 7 8 7 7 6 6 6 5 4 4 4 4 5 5 6 7 7 7 7 7 7 7 7 7 7 8 8 9 9 9 9
17 17 17 16 16 16 16 16 16 16 15 15 15 15 14 14 14 14 14 14 14 14 13 13 13 12 12 11 10 10 9 8 8 7 7 6 6 6 6 6 6 6 6 6 7 7 7 7 7 7 7 7 7 7 7 7 7 7 6 6 6 5 4 3 3 3 4 4 5 6 7 6 6 6 6 6 6 7 7 8 8 9 9 9 9
16 16 16 16 15 16 15 15 15 15 15 14 14 14 14 14 14 14 14 13 13 13 13 13 12 12 11 10 10 9 9 8 7 7 6 6 5 5 5 5 5 5 6 6 6 6 6 7 7 7 7 6 6 7 7 7 7 6 6 6 6 5 4 3 3 3 3 3 4 5 6 6 6 6 5 5 6 6 7 7 8 8 9 9 9
16 16 16 16 15 15 15 14 15 15 14 14 14 14 14 14 14 14 13 13 13 13 12 12 11 11 10 10 9 9 8 8 7 7 6 5 5 5 5 5 5 5 5 5 5 6 6 6 6 6 6 6 6 6 6 6 6 6 6 5 6 5 4 3 2 2 2 3 4 4 5 5 5 5 5 5 5 5 6 7 7 8 8 8 9
16 16 16 16 15 15 14 14 14 14 14 13 13 13 13 14 13 13 13 13 12 12 12 11 11 10 10 9 9 8 8 8 7 7 6 5 5 4 4 4 4 5 5 5 5 5 5 6 6 6 6 6 6 6 6 6 6 6 6 5 5 5 4 3 2 3 2 2 3 4 4 5 5 5 5 4 4 5 5 6 6 7 7 8 8
16 16 16 16 15 15 14 14 14 14 14 13 13 13 13 13 13 13 13 12 12 11 11 11 10 10 9 9 9 8 8 7 7 6 6 5 5 4 4 4 4 4 4 4 5 5 5 5 5 5 5 6 6 5 5 5 6 6 6 5 5 5 4 2 2 3 3 2 2 3 4 4 5 5 5 4 4 4 4 5 6 6 7 7 7
16 16 16 16 15 15 14 14 14 13 13 13 13 12 12 13 13 13 12 11 11 11 11 10 10 10 9 9 8 8 7 6 6 6 5 5 4 4 4 4 4 4 4 4 4 5 5 5 5 5 5 6 6 5 5 5 6 6 6 6 5 5 4 3 3 3 3 2 2 3 3 4 4 4 4 4 4 4 4 4 5 6 6 7 7
16 16 16 15 15 14 14 13 13 13 13 13 12 12 12 12 12 12 12 11 11 11 10 10 10 9 9 8 8 7 6 6 6 5 5 4 4 4 3 3 3 3 3 3 4 5 6 6 6 6 5 5 5 5 5 5 5 5 5 6 5 5 5 3 3 2 2 2 2 2 2 3 3 4 4 4 4 4 4 4 5 5 6 7 7
15 15 15 15 15 14 13 13 13 13 13 13 13 13 12 12 12 11 11 11 11 10 10 10 9 9 8 7 7 6 6 6 5 5 4 4 3 3 3 3 3 3 3 3 4 5 6 6 5 5 5 5 5 5 5 5 5 5 5 5 5 4 4 3 3 2 2 2 2 1 2 2 2 3 3 3 3 3 4 4 4 5 6 7 7
15 15 15 14 14 14 13 13 13 12 12 13 12 12 12 12 11 11 11 10 10 10 9 9 8 8 7 7 6 6 6 5 5 4 4 3 3 3 3 3 3 3 4 4 5 6 6 5 4 4 4 4 5 5 5 5 5 5 5 5 5 4 3 3 2 2 2 1 1 0 1 1 1 2 2 2 3 3 3 4 5 5 6 6 7
14 14 14 13 13 13 13 12 12 12 12 12 12 12 11 11 11 10 10 10 10 9 9 8 8 7 7 6 6 6 5 5 4 4 3 3 3 2 3 3 3 4 4 5 6 6 6 5 5 5 4 4 4 5 5 5 5 5 5 4 4 4 3 2 1 1 1 1 1 1 1 1 1 1 1 2 2 3 3 4 5 5 6 6 7
14 14 13 13 13 13 12 12 12 12 12 12 11 11 11 11 10 10 10 10 9 9 8 8 7 7 7 7 6 6 5 5 4 3 3 2 2 2 3 3 4 4 5 7 7 6 6 5 5 5 4 4 5 5 5 5 5 6 5 4 4 4 3 2 2 2 2 2 2 2 1 1 2 1 1 1 2 2 3 3 5 5 5 6 6
14 13 13 13 13 12 12 12 12 12 12 12 11 11 10 11 10 10 10 10 9 8 8 7 7 7 6 6 6 5 5 4 4 3 3 2 2 3 3 3 5 5 7 8 6 6 6 5 5 5 5 5 5 5 5 5 6 6 5 5 4 4 4 3 2 3 2 2 2 2 2 2 3 3 2 1 2 2 2 3 4 5 6 6 6
13 13 12 12 12 12 11 12 12 12 12 12 11 11 10 10 10 10 9 9 9 8 8 7 7 6 6 5 5 5 4 3 3 3 3 3 3 3 3 4 5 6 7 8 6 7 6 5 5 5 5 5 5 5 5 5 5 5 5 5 4 4 4 4 3 3 3 3 3 3 3 3 3 4 3 2 2 2 2 3 4 5 5 6 6
13 13 12 12 12 11 11 12 12 12 12 12 11 11 10 10 10 9 9 8 8 8 7 7 6 6 5 5 4 4 3 3 2 2 2 3 3 3 4 5 5 6 7 7 7 7 7 6 5 5 5 5 5 5 5 6 6 6 6 5 5 5 5 5 4 4 4 4 4 4 4 4 4 4 4 4 3 3 3 3 4 4 5 6 6
12 12 12 12 12 11 11 11 12 11 12 11 11 10 10 9 9 8 8 8 7 7 6 6 5 5 4 4 4 3 3 2 2 2 2 3 4 4 4 5 6 6 7 8 8 8 7 6 5 5 5 5 5 5 6 6 6 6 6 6 6 6 5 5 6 5 5 5 5 5 5 5 6 6 6 5 5 4 4 4 4 4 5 6 6
12 12 12 12 12 12 11 11 11 11 11 10 10 9 9 8 8 8 7 7 6 6 5 5 4 4 4 4 3 3 2 2 2 1 2 3 4 4 5 5 6 6 7 8 8 8 7 6 6 5 5 5 5 6 6 6 6 6 6 7 7 6 6 6 6 6 5 5 6 6 6 6 7 7 7 7 6 6 5 5 5 5 5 6 6
12 12 12 13 12 12 12 11 11 11 10 10 9 9 8 8 7 7 6 6 6 5 5 4 4 4 4 3 3 3 2 2 2 2 2 3 4 4 5 5 6 7 7 7 7 7 7 7 6 5 5 5 5 6 6 7 7 7 7 7 7 7 7 7 6 6 6 6 6 6 6 6 7 8 8 8 8 7 7 6 6 6 6 6 6
13 13 13 13 12 12 11 11 11 10 10 9 9 8 8 7 7 7 6 6 6 5 4 4 4 4 3 3 3 2 2 2 2 2 3 3 4 4 5 5 6 6 7 7 6 6 7 6 6 6 5 5 5 6 7 7 8 8 7 7 7 7 7 7 7 7 7 7 7 7 7 7 8 8 9 10 10 9 8 8 7 7 7 7 7
13 13 12 12 12 11 11 10 10 10 10 9 8 8 8 7 7 6 6 5 5 4 4 4 3 3 3 3 2 2 2 2 2 2 3 4 4 5 5 5 6 6 6 6 6 6 6 6 6 6 6 6 6 7 8 8 8 9 8 8 8 8 8 8 8 8 8 8 8 8 8 8 8 9 10 10 11 11 11 10 9 8 8 8 8
12 12 12 12 11 11 10 10 9 9 9 8 8 7 7 7 6 6 5 5 4 4 4 3 3 3 2 2 1 1 1 1 2 2 3 4 4 5 5 6 6 6 6 6 6 6 6 6 6 6 6 7 7 8 9 9 9 10 10 9 9 9 9 9 9 9 9 9 9 9 9 9 9 9 10 11 11 12 12 12 11 10 10 9 9
12 12 12 11 11 11 10 10 9 9 9 8 8 7 7 7 6 6 5 5 4 4 3 3 3 2 2 2 1 1 0 1 1 2 3 4 4 5 5 6 6 6 6 6 6 6 6 6 6 6 7 7 8 9 10 10 10 11 11 11 10 10 9 9 10 10 10 10 10 10 10 10 10 10 10 11 12 13 13 13 13 12 11 11 10
12 12 12 11 11 11 10 10 9 9 8 8 8 7 7 6 6 6 5 4 4 4 3 3 3 2 2 2 2 1 1 1 1 2 3 4 4 5 5 5 6 6 6 6 6 7 7 7 7 7 7 8 9 10 11 11 11 11 12 11 11 10 10 10 11 11 11 10 10 10 10 10 10 10 10 12 13 13 14 14 14 13 13 12 12
12 12 12 11 11 10 10 10 9 9 8 8 7 7 7 6 6 5 5 4 4 4 3 3 3 3 3 2 2 2 1 1 2 2 3 4 4 4 5 5 6 6 6 6 6 7 7 7 7 7 8 9 9 10 11 12 12 12 12 12 12 11 11 11 11 11 11 11 10 10 10 10 11 11 11 11 12 13 14 14 15 15 14 14 13
13 13 12 11 11 10 10 9 9 9 8 8 7 7 7 6 6 5 5 5 4 4 4 4 3 3 3 3 2 2 2 2 2 3 3 3 4 4 5 5 5 6 6 6 6 6 7 7 8 8 9 10 10 11 12 12 12 12 12 12 12 12 12 11 11 11 11 10 10 10 10 10 11 11 11 11 12 13 14 15 16 16 15 15 15
13 13 12 12 11 11 10 9 9 8 8 8 7 7 7 6 6 6 5 5 5 4 4 4 4 4 3 3 3 2 2 2 3 3 3 4 4 4 5 5 5 5 5 6 6 6 7 8 8 9 10 10 11 12 12 12 12 12 12 12 12 12 12 11 11 10 10 10 10 9 9 10 11 11 11 11 12 13 14 15 16 16 16 16 16
14 13 13 12 12 11 10 10 9 9 8 8 7 7 7 7 6 6 6 5 5 4 4 4 4 4 3 3 3 3 3 3 3 3 4 4 4 4 5 5 5 5 5 6 6 7 7 8 9 9 10 11 11 12 12 12 12 12 12 12 12 11 11 11 10 10 10 10 9 9 9 10 10 11 11 12 12 12 13 15 15 16 16 16 16
13 13 13 12 12 11 10 10 10 9 8 8 7 7 7 7 7 6 6 6 5 5 5 4 4 4 4 3 4 3 3 4 4 4 4 4 5 5 5 5 5 5 5 6 6 7 8 9 9 10 10 11 11 12 12 12 11 12 12 12 12 12 11 11 10 10 10 9 9 9 9 10 10 11 11 12 12 13 13 14 15 16 16 17 17
13 13 12 12 12 11 10 10 10 9 8 8 8 7 7 7 7 7 6 6 6 6 5 5 5 4 4 4 4 4 4 4 5 5 5 5 5 5 5 5 6 6 6 7 7 8 9 9 10 10 11 11 11 11 11 11 11 11 12 12 12 12 12 11 11 10 9 9 9 9 10 10 10 11 11 12 12 13 13 14 15 15 16 17 18
12 12 12 12 12 11 10 10 10 9 9 9 8 8 7 7 7 7 7 6 6 6 6 6 5 5 5 5 4 5 5 5 5 5 5 6 6 6 6 6 6 6 7 8 8 9 10 10 11 11 11 11 11 10 11 11 11 11 12 12 12 12 12 11 11 10 10 9 9 9 10 10 10 10 11 12 12 13 14 14 15 15 16 16 17
12 12 12 12 12 11 10 10 10 9 9 9 9 8 8 7 7 7 6 6 6 7 7 6 6 6 5 5 5 6 6 6 6 6 6 6 6 6 6 7 7 7 7 8 9 10 10 11 11 11 10 10 10 10 10 10 11 11 11 12 12 12 12 11 11 10 10 10 9 9 9 10 10 10 10 11 12 13 14 15 15 16 16 16 17
12 12 12 13 12 12 11 10 10 10 10 9 9 9 8 8 7 7 7 6 7 7 7 7 7 6 6 6 6 6 7 6 6 6 6 7 7 7 7 8 8 8 8 9 10 10 10 10 10 10 10 10 10 10 10 10 11 11 11 12 12 11 11 11 11 10 10 10 9 9 9 9 10 10 10 11 11 12 14 15 16 16 16 17 17
13 12 13 13 12 12 11 11 10 10 10 10 10 9 9 8 8 7 7 7 7 7 7 7 7 7 7 7 7 7 7 7 7 7 7 7 8 8 8 8 8 9 9 10 10 10 10 10 9 10 9 10 10 10 10 11 11 11 12 12 11 11 10 11 11 10 10 10 10 10 9 9 9 10 10 10 11 11 12 14 15 16 17 17 17
13 13 13 13 12 12 11 11 11 10 10 10 10 9 9 9 8 8 7 7 7 7 7 7 7 8 7 8 8 8 8 8 8 8 8 8 8 9 9 8 9 9 9 10 10 10 9 9 9 9 10 10 10 10 10 11 11 12 12 11 11 10 10 10 10 10 10 10 10 10 10 10 10 10 9 10 11 11 12 12 14 15 16 17 18
14 14 13 13 13 12 12 12 11 11 10 10 10 9 9 8 8 8 8 8 8 8 8 8 8 8 8 8 8 8 8 8 9 9 9 9 9 9 9 9 9 9 9 10 10 10 10 10 10 10 10 10 10 10 10 10 11 11 12 11 11 10 9 10 10 10 10 10 10 10 10 10 10 10 10 9 10 10 11 12 12 13 15 16 17
14 14 14 13 13 13 13 13 12 11 10 10 9 9 8 8 8 8 8 8 8 8 9 8 8 9 9 9 9 9 9 9 10 10 9 9 9 9 9 9 9 9 10 10 10 11 11 11 11 11 11 11 10 10 10 10 11 11 11 11 11 9 9 9 10 10 9 9 10 10 10 10 10 10 10 10 10 9 10 11 11 12 13 14 16
14 14 14 14 14 14 14 13 12 12 11 10 10 9 9 8 8 8 9 9 9 9 9 9 9 9 10 10 10 9 10 10 10 10 10 9 9 9 9 9 9 9 10 10 11 11 11 10 10 10 10 10 10 10 10 10 10 10 10 11 10 9 9 10 10 10 10 10 10 10 11 11 11 11 11 10 10 10 10 10 11 11 12 13 14
14 14 14 14 14 14 14 14 13 12 12 11 11 10 9 9 9 9 9 9 9 9 9 9 9 9 9 10 10 9 9 9 9 9 9 9 8 9 9 9 9 10 10 11 11 10 10 9 9 9 9 10 10 10 10 10 10 10 10 10 10 9 9 10 10 10 10 10 10 10 10 11 11 11 12 11 11 11 11 11 11 11 12 12 13
15 14 14 14 14 15 14 14 14 13 13 12 12 11 10 10 9 9 9 9 9 9 9 9 8 9 9 9 9 9 9 8 8 8 8 8 8 8 8 9 10 10 11 11 10 10 9 9 9 9 9 9 9 9 9 9 10 9 10 10 10 10 10 10 10 10 10 10 10 10 11 11 11 11 12 12 12 12 12 12 12 12 12 12 13
15 15 15 15 14 14 15 14 14 14 14 13 12 12 11 10 10 9 9 9 9 8 8 8 8 8 8 8 8 8 8 8 7 7 8 8 8 8 9 10 10 11 11 10 9 9 9 9 9 9 9 9 9 9 9 9 9 10 10 10 10 10 9 10 11 10 10 10 10 11 11 11 11 11 11 12 12 12 12 13 13 13 13 13 13
16 16 15 15 14 15 15 15 14 14 14 13 13 12 11 10 10 9 9 9 9 8 8 8 8 8 8 8 8 8 8 8 8 8 8 8 8 9 10 10 10 10 10 10 9 9 9 9 9 9 9 9 9 9 9 9 10 10 10 10 10 10 10 11 11 10 10 11 11 11 11 12 12 12 12 12 12 12 12 13 13 13 13 13 14
17 17 16 16 15 15 15 15 14 14 14 13 13 12 11 11 10 10 9 9 9 8 8 8 8 8 8 8 8 8 8 8 8 8 8 8 9 10 10 10 10 10 10 9 9 9 9 9 9 9 9 9 9 9 9 9 10 10 10 11 11 10 11 11 11 11 11 11 11 11 12 12 13 13 13 13 13 13 13 13 13 13 14 14 14
18 18 17 16 16 15 15 15 14 14 14 13 13 12 11 11 11 10 10 10 9 9 9 8 8 9 9 9 9 8 8 8 8 8 8 8 9 10 10 10 9 9 9 9 9 9 9 9 9 9 9 9 9 9 9 9 10 10 10 10 10 10 11 11 11 12 12 12 12 12 12 13 13 13 13 13 14 14 14 14 14 14 14 14 15
19 18 17 17 17 16 16 15 15 15 14 14 13 13 12 12 12 12 11 11 11 10 10 9 9 9 9 9 9 9 9 9 8 8 8 8 9 10 10 9 9 9 8 8 9 9 9 9 9 9 9 9 9 9 9 9 10 10 9 9 9 10 10 11 11 12 12 13 13 13 14 14 14 14 14 14 15 15 15 15 15 15 15 15 15
19 19 18 18 17 17 16 16 16 15 15 15 14 14 13 13 13 13 13 12 12 11 11 10 9 10 9 9 9 9 9 9 8 8 8 9 9 9 9 9 8 9 8 8 9 9 9 10 10 10 10 10 9 9 9 10 10 10 10 9 9 10 10 11 11 12 12 13 13 14 15 16 15 15 15 16 16 16 16 16 16 16 17 17 17
19 19 20 19 18 18 17 17 17 16 16 15 15 15 14 14 14 15 14 13 12 12 11 10 10 10 9 9 9 9 9 9 9 9 9 9 9 9 9 8 9 9 9 9 9 9 9 9 10 10 10 10 10 10 10 10 10 10 10 10 10 10 11 11 12 12 12 13 14 15 16 16 16 17 17 17 18 17 17 17 17 17 17 18 18
20 20 20 20 19 19 19 18 18 17 16 16 16 16 15 15 15 16 15 14 13 12 11 11 10 10 10 10 10 10 10 10 10 9 9 10 10 9 9 9 9 9 9 9 9 9 9 9 9 10 10 10 10 10 10 10 10 11 11 11 11 11 12 12 13 13 13 14 15 16 16 16 17 18 18 19 19 19 19 18 18 18 19 19 20
Wind_Direction
132 130 132 134 133 133 132 130 127 125 124 124 124 123 121 120 120 118 119 120 122 124 126 127 127 127 127 126 124 122 122 122 119 115 110 106 101 96 92 87 82 78 76 75 74 73 72 71 70 67 62 59 58 57 57 57 59 61 65 73 79 78 79 78 75 69 65 66 67 69 70 71 74 76 77 80 84 87 92 97 104 108 111 116 121
131 130 131 132 133 132 132 130 127 126 126 126 125 124 122 121 120 119 119 121 122 124 127 128 127 126 126 125 124 123 122 122 119 115 111 107 102 96 90 85 81 78 77 73 71 71 71 70 67 64 60 58 56 54 53 53 55 57 59 67 73 74 75 76 75 69 66 67 68 69 71 72 72 73 75 78 80 82 87 94 102 108 111 115 120
131 130 130 132 133 132 132 130 128 127 127 127 126 124 122 121 121 120 119 121 123 124 126 128 127 125 125 125 124 123 122 122 119 115 111 108 103 96 89 85 82 78 75 71 70 71 71 69 65 60 57 55 54 52 49 50 52 55 57 61 66 69 70 73 71 68 68 68 68 69 69 70 71 71 72 76 78 79 85 95 104 109 113 118 122
131 129 131 133 133 132 132 132 131 130 129 128 126 124 123 123 123 121 120 121 123 124 125 126 127 125 125 125 124 123 122 121 119 117 114 109 103 96 90 86 81 76 73 70 69 70 69 67 64 57 53 51 52 51 48 48 49 52 55 57 59 63 66 68 66 64 67 68 67 68 68 68 70 70 70 73 76 77 84 97 106 112 116 120 123
131 128 130 133 132 131 131 133 134 132 130 127 126 125 125 125 125 123 123 122 123 124 125 126 126 126 125 125 125 124 123 121 120 118 114 109 104 97 91 84 79 74 70 69 69 68 65 63 61 56 51 49 49 49 47 46 45 45 48 51 53 57 62 66 65 58 59 67 66 66 67 66 69 71 72 74 74 75 84 96 106 113 118 121 122
132 130 131 132 131 131 131 131 133 133 130 127 125 126 127 127 126 125 125 124 125 125 126 127 128 128 127 127 126 125 124 123 121 118 113 108 103 96 89 82 77 72 70 68 68 65 61 58 56 52 49 46 44 43 43 42 41 40 40 44 45 50 61 69 73 64 57 65 66 65 67 66 69 72 74 77 77 78 85 95 103 112 118 121 123
134 133 134 134 132 132 131 130 132 133 132 128 126 127 128 128 128 128 127 126 126 127 128 129 130 129 128 127 126 126 125 124 123 119 113 107 102 95 89 82 76 71 69 68 65 61 56 52 49 48 45 42 38 36 37 37 36 36 37 37 35 37 49 65 79 81 66 67 69 67 68 66 68 73 75 79 82 85 90 96 102 109 116 120 123
133 133 135 137 135 133 131 129 131 133 133 131 127 127 129 130 131 130 128 127 127 128 129 130 130 129 128 128 127 126 125 125 124 120 116 111 105 98 92 84 76 71 68 66 60 54 49 46 43 43 41 37 34 32 33 33 32 33 32 31 30 29 33 51 74 90 81 75 76 70 68 65 68 74 77 82 86 91 97 100 104 109 115 120 124
131 130 132 135 135 132 128 129 132 132 133 132 128 128 130 130 131 131 130 128 128 128 128 129 129 129 129 129 128 127 125 124 121 120 118 115 110 101 93 83 75 71 66 60 51 45 41 39 39 39 36 30 30 30 29 28 28 28 27 25 25 25 27 46 75 90 88 85 85 75 68 64 67 74 80 85 89 97 105 107 109 112 117 121 126
130 129 130 132 132 130 127 129 131 131 130 131 129 129 130 131 132 131 131 130 129 128 127 128 129 130 130 130 128 126 124 121 120 120 119 115 109 99 90 78 71 67 61 51 42 36 33 33 33 35 32 25 23 23 22 23 23 24 24 23 22 23 25 49 86 92 87 86 93 83 72 66 67 74 82 89 94 102 111 114 115 117 122 125 128
130 129 131 132 131 130 128 128 130 130 130 130 131 131 132 132 132 132 131 129 129 128 128 129 130 130 129 129 128 126 123 122 121 118 116 112 104 95 84 73 65 59 51 41 32 28 26 29 30 29 26 21 19 18 18 18 19 20 23 25 26 26 27 57 102 94 84 84 92 92 81 71 70 73 80 92 101 108 118 123 122 122 127 131 133
131 131 132 133 132 131 128 127 129 130 131 131 132 133 133 133 132 132 132 130 130 130 130 130 130 130 129 129 128 126 125 123 119 114 112 107 98 88 77 65 56 47 38 29 25 24 23 23 24 24 18 16 17 17 15 13 14 16 21 24 27 30 33 65 106 89 79 84 82 94 96 77 72 74 77 92 104 114 128 135 132 130 132 136 138
135 133 133 134 134 132 129 129 129 130 132 132 133 133 133 133 131 131 131 130 130 130 131 130 130 129 129 129 127 126 125 123 115 109 106 102 93 81 69 56 43 32 21 17 19 19 16 10 9 14 12 12 12 11 11 9 8 11 16 17 21 27 35 63 92 79 72 80 69 89 114 86 72 74 75 91 106 116 132 142 142 141 139 141 142
138 136 135 135 135 133 131 132 132 132 134 132 132 132 131 131 130 130 131 130 130 129 130 130 129 128 128 128 127 126 123 118 111 106 102 94 82 68 54 40 27 15 7 11 15 10 3 358 359 7 8 9 6 3 3 3 0 360 5 9 13 15 22 53 73 67 57 67 53 43 138 122 80 75 72 91 108 117 132 145 150 151 147 147 147
140 139 137 135 135 136 136 135 135 134 135 133 132 131 131 132 131 131 131 131 130 129 128 127 127 126 126 126 127 125 120 114 110 105 99 86 71 54 36 23 10 359 359 10 11 3 357 357 1 7 8 7 2 356 356 355 354 351 349 355 3 2 5 23 31 13 2 9 344 291 223 209 187 100 73 99 114 120 134 148 156 158 154 153 154
141 141 139 138 136 138 138 138 138 136 135 133 133 133 132 134 133 132 131 130 129 127 126 124 124 123 122 123 124 122 118 112 105 100 93 81 61 39 23 11 1 352 1 12 10 1 358 357 358 360 4 11 8 357 351 349 350 351 346 346 349 353 356 355 342 322 313 323 306 267 250 247 225 217 211 141 132 130 139 151 160 163 161 160 160
143 143 142 140 138 139 139 138 139 137 135 135 135 137 136 136 135 133 133 131 129 126 125 123 122 122 122 122 121 118 114 107 100 93 83 66 44 29 19 10 2 358 8 15 10 1 356 355 352 347 348 1 9 359 350 347 347 352 350 344 338 339 342 333 321 314 299 294 292 268 260 261 233 224 225 199 173 158 153 158 163 167 167 167 166
146 145 143 143 143 141 140 139 140 139 138 138 138 139 137 136 135 135 134 132 130 128 126 123 121 122 122 121 117 114 111 105 98 86 71 52 35 26 16 6 3 3 12 14 8 3 359 358 354 344 341 347 360 1 358 355 351 354 352 345 334 330 330 322 316 314 299 285 284 275 262 258 241 227 224 217 203 191 177 168 171 174 173 173 173
150 149 147 147 148 145 143 142 142 141 141 141 140 140 137 135 135 134 134 133 131 129 126 123 121 121 120 118 114 112 111 106 97 81 59 38 26 17 9 4 3 4 6 7 4 3 2 4 2 353 348 352 2 2 0 357 354 354 350 345 338 332 329 321 317 314 303 290 284 280 268 257 243 230 224 222 216 209 200 186 181 183 181 180 180
154 153 153 153 151 148 145 145 144 143 143 142 141 140 138 137 136 134 134 133 131 129 127 123 121 120 117 116 114 112 111 105 95 71 42 25 17 9 3 0 0 359 358 358 357 357 360 4 5 359 354 360 7 2 357 353 350 351 346 342 338 333 330 322 317 314 305 295 286 280 273 260 245 235 229 226 223 217 213 205 194 193 190 187 187
157 156 157 155 153 151 149 148 146 145 145 143 141 140 140 139 137 136 135 134 134 132 130 127 124 122 118 117 116 113 109 99 82 54 32 18 11 6 358 353 353 353 353 355 353 353 359 4 4 1 0 4 8 4 359 352 348 346 343 338 333 330 328 321 315 310 303 294 287 280 274 263 248 238 233 231 229 222 219 215 207 203 200 197 194
159 158 157 157 156 154 151 149 148 147 147 144 141 140 141 141 138 137 136 136 135 135 134 132 130 127 123 119 116 109 99 87 69 47 26 13 7 5 358 351 350 350 352 353 353 355 1 6 5 4 5 5 5 3 359 353 348 345 341 335 330 328 326 321 314 307 300 291 285 281 276 267 253 242 236 234 233 229 224 221 217 213 210 208 204
160 158 158 160 158 155 152 151 151 151 150 146 142 141 140 141 140 138 137 137 136 136 136 135 135 132 130 123 114 105 90 77 58 35 15 6 2 2 358 353 352 352 354 353 354 360 6 10 9 7 5 2 360 358 356 351 347 343 340 336 331 326 322 318 314 307 300 292 283 277 274 269 260 248 240 236 235 233 229 226 224 221 219 217 213
159 159 159 160 158 156 154 153 153 153 153 149 146 144 144 143 142 141 139 141 140 140 139 137 139 136 134 127 114 102 84 64 40 20 7 1 358 357 356 356 356 355 357 357 358 2 5 8 9 6 3 358 355 352 350 347 343 340 336 333 329 323 318 314 310 306 300 293 284 276 271 267 263 254 246 240 236 236 233 230 228 226 224 223 221
159 158 158 158 158 158 156 155 156 156 155 153 152 151 150 149 149 148 146 148 146 145 144 141 142 141 142 140 133 112 74 38 19 11 3 2 359 357 357 359 358 358 1 3 4 4 1 1 0 358 356 352 350 348 345 343 340 338 334 330 325 320 316 311 308 304 299 293 284 278 273 268 264 258 251 244 239 237 235 233 232 229 227 226 226
161 159 158 158 159 160 159 157 159 160 161 160 159 158 157 156 157 157 156 154 152 151 151 152 152 152 154 157 166 175 170 2 3 2 360 1 0 359 359 0 359 0 4 6 7 6 2 358 354 350 347 345 344 342 340 339 337 333 330 327 323 318 315 311 307 303 298 293 285 279 274 270 266 260 253 247 242 239 237 236 235 233 231 229 229
165 164 163 162 162 163 163 162 163 164 166 166 165 165 166 166 166 166 166 166 165 166 167 171 171 172 175 178 191 210 242 295 335 352 353 352 354 356 358 359 360 1 3 5 5 5 2 358 352 347 343 340 337 335 334 334 332 329 326 326 323 319 315 311 308 303 298 293 287 279 274 270 265 261 256 250 246 242 239 237 236 236 235 233 232
171 170 168 166 166 167 168 167 167 168 169 169 169 171 173 174 175 175 178 179 179 182 187 190 191 194 200 209 220 237 259 287 315 336 344 344 346 349 353 357 358 359 0 1 360 359 359 356 352 347 343 339 336 334 331 330 328 327 325 324 322 319 316 312 309 305 300 294 288 281 274 269 265 261 258 253 248 246 243 240 238 237 237 237 236
176 175 173 172 171 172 173 173 172 173 174 174 175 176 179 182 184 187 191 192 192 195 201 204 207 211 219 227 235 251 267 287 306 321 332 337 342 344 348 352 354 356 357 356 354 353 352 351 350 347 343 340 338 336 334 332 331 329 326 324 321 318 316 313 310 308 304 298 290 283 277 271 266 261 259 256 252 249 246 243 239 238 238 239 237
178 178 178 178 177 176 178 181 181 181 181 181 183 184 187 190 194 198 200 202 204 206 209 213 217 222 228 232 238 253 269 287 300 312 324 329 335 340 342 345 348 352 352 350 348 346 346 346 344 343 341 340 339 338 337 337 336 335 332 328 325 321 319 316 313 310 308 303 295 287 280 273 268 263 260 259 256 252 248 246 243 240 239 239 238
181 181 182 183 183 183 185 188 190 191 191 191 194 195 196 199 204 207 207 209 212 212 215 219 223 227 231 234 241 254 269 285 296 302 311 319 326 331 335 338 342 344 343 341 340 340 341 341 340 338 337 337 337 337 337 338 339 339 337 335 333 330 327 322 318 313 310 307 301 293 285 278 272 268 264 260 258 254 250 248 246 243 241 240 240
183 184 186 187 188 189 192 195 197 199 200 201 203 205 207 209 213 214 214 216 218 219 221 224 227 232 235 238 245 256 269 280 289 295 299 308 317 321 327 332 335 336 335 333 333 333 334 334 334 333 332 333 333 335 337 338 339 339 338 338 338 336 333 330 325 319 313 308 304 297 290 284 279 274 270 264 260 257 253 251 248 247 244 242 241
185 187 189 190 191 194 197 200 203 205 207 209 210 212 215 219 221 220 221 222 222 224 227 231 234 239 243 246 251 257 267 277 284 290 292 299 309 314 318 324 328 328 328 327 326 325 326 327 328 328 329 330 332 333 336 337 338 337 338 338 337 335 334 332 329 325 319 312 306 300 295 290 285 279 275 269 265 261 257 254 251 250 248 246 244
189 191 193 194 196 198 201 204 208 210 212 215 215 216 220 224 225 224 225 225 225 227 232 238 240 244 250 252 257 263 269 274 280 288 292 296 303 306 307 313 318 320 321 321 320 320 321 323 324 325 327 328 330 332 334 335 334 334 335 335 335 334 334 332 330 328 324 318 311 303 298 293 289 285 279 274 269 264 260 257 255 253 251 249 248
194 196 197 198 200 202 204 207 210 213 215 217 218 219 223 226 226 226 227 228 229 231 236 240 242 247 252 256 260 267 272 273 278 288 293 296 298 298 301 305 309 312 314 315 315 316 319 320 321 322 324 326 328 330 332 331 330 331 333 333 333 333 334 334 333 330 328 325 319 312 304 297 292 288 284 279 274 268 264 262 258 255 253 251 250
199 199 199 201 203 206 208 209 212 214 216 218 219 221 225 226 227 227 228 231 232 235 239 241 244 247 250 255 261 269 274 275 281 286 290 293 294 293 295 298 303 306 310 311 312 314 317 318 318 319 321 323 325 327 330 329 326 328 331 332 332 333 334 334 334 334 333 331 328 323 316 307 298 292 287 282 279 274 269 266 262 259 256 253 253
203 202 202 204 206 208 210 212 214 215 217 219 220 223 225 226 227 227 228 232 235 239 242 245 247 249 252 256 263 272 276 277 281 283 286 290 291 292 292 292 296 301 306 309 312 314 316 315 316 317 318 320 322 324 326 327 325 326 330 331 331 333 333 333 334 334 334 333 331 329 325 320 311 302 294 287 283 279 274 270 267 263 260 256 254
206 207 207 207 208 209 211 214 215 216 219 221 222 224 226 227 228 228 230 234 238 242 246 249 250 251 255 260 264 272 277 280 281 281 286 288 287 291 292 291 293 298 303 308 311 313 314 314 313 314 316 317 319 321 323 325 324 326 330 332 331 331 331 331 332 332 332 331 330 329 328 325 321 315 306 296 288 283 280 275 270 267 265 261 257
209 210 210 211 211 212 214 215 216 218 220 221 221 223 226 229 230 230 233 238 242 246 249 252 253 253 257 262 265 270 276 281 283 283 285 287 288 291 291 291 293 297 302 306 309 310 310 311 309 309 312 314 316 318 320 321 322 324 328 330 330 329 328 328 328 328 327 327 327 326 326 325 324 322 317 309 299 290 285 281 276 272 269 265 261
211 212 212 214 216 216 216 217 218 219 221 220 220 223 226 229 231 232 237 242 246 249 251 252 255 257 259 262 266 269 275 280 282 283 283 286 290 290 290 291 294 298 302 305 306 307 307 306 304 305 307 310 313 316 318 319 320 322 324 327 328 327 326 326 326 325 323 323 324 322 321 322 321 321 320 316 310 302 293 287 283 279 274 270 265
213 214 215 217 218 218 217 218 220 220 221 220 220 222 224 227 229 231 237 242 246 248 250 253 257 260 261 263 267 268 273 279 280 278 279 284 287 288 290 293 295 299 302 304 306 305 305 305 304 304 305 308 311 313 315 317 318 320 322 324 325 325 324 325 327 327 324 323 323 322 320 319 319 318 317 314 312 308 301 295 290 285 281 276 272
216 216 217 218 219 219 219 219 220 220 220 220 220 222 225 228 230 233 238 242 246 248 251 256 262 265 264 263 264 265 271 279 277 275 278 282 284 288 292 294 296 299 301 304 305 305 305 305 305 305 305 307 309 311 313 314 317 320 320 320 321 321 320 322 325 326 326 325 324 323 322 321 320 318 315 312 310 307 303 300 295 290 286 282 278
217 217 217 218 219 220 220 220 220 219 220 221 221 223 226 230 232 237 242 246 249 251 253 258 263 266 264 261 261 262 270 278 274 273 279 281 285 289 291 294 296 298 301 304 305 304 304 304 304 305 306 307 309 311 312 313 315 317 317 316 317 317 315 318 322 322 323 324 324 325 324 323 323 321 317 314 311 308 305 302 298 294 291 287 283
218 218 217 218 219 220 220 220 220 220 221 221 221 223 227 231 235 240 244 247 249 250 251 255 259 261 261 261 261 264 271 276 273 276 280 283 286 288 291 295 297 299 302 304 305 304 303 302 302 303 305 307 310 312 313 313 313 313 312 312 315 314 312 318 321 318 318 320 322 323 323 323 324 322 319 316 312 310 307 304 301 298 295 292 288
218 217 217 218 219 219 220 219 220 221 221 220 221 224 228 231 235 240 243 245 246 245 246 250 255 259 262 263 265 268 272 274 275 280 283 286 289 291 294 296 299 301 303 305 306 304 303 303 303 303 304 307 310 313 313 313 312 309 308 309 311 312 312 317 319 317 316 316 316 319 320 320 322 322 319 316 313 311 308 306 303 301 298 296 292
218 217 217 217 218 219 219 219 219 220 220 220 222 225 228 230 231 234 235 237 240 242 245 251 258 264 268 269 270 272 273 275 279 282 285 288 291 294 297 298 300 301 302 304 304 303 303 303 303 303 304 306 309 311 311 311 311 309 306 306 308 309 310 313 315 315 315 313 313 315 316 317 318 319 318 315 312 310 307 305 303 301 299 298 295
218 218 217 217 218 218 219 220 220 220 220 221 223 224 228 229 229 231 233 235 239 244 250 257 265 270 273 274 276 277 275 276 280 281 282 285 291 297 299 298 298 299 300 300 301 301 302 301 300 301 303 305 306 309 310 311 312 311 310 309 310 311 311 310 311 313 312 311 312 313 315 317 316 316 317 315 313 310 306 303 301 299 298 297 296
219 218 217 217 218 218 219 221 221 222 223 224 225 227 230 231 232 234 237 240 244 249 255 261 267 271 273 275 278 278 275 274 276 276 278 283 290 297 300 297 296 297 299 299 299 301 300 299 299 299 300 302 304 307 311 313 314 314 315 315 315 315 315 313 311 312 311 309 310 311 314 315 314 315 315 315 314 311 307 302 298 296 295 294 294
220 220 219 220 220 220 221 222 223 224 225 227 228 231 233 235 237 239 241 245 248 252 258 262 267 271 272 274 276 275 273 271 272 273 277 283 290 297 299 295 294 296 298 298 298 299 299 298 297 298 300 301 302 305 308 312 315 316 317 317 317 317 315 314 313 313 311 309 308 310 312 313 313 313 313 313 313 310 307 304 298 294 292 291 291
222 222 222 223 223 222 222 223 224 226 227 229 231 233 236 240 242 243 244 247 249 252 257 260 264 268 270 271 273 274 272 271 271 274 278 282 289 295 297 294 293 295 296 296 296 296 296 296 296 298 300 301 302 303 304 308 311 314 315 315 315 315 314 313 313 312 312 310 309 310 311 312 312 311 310 311 311 308 306 304 299 294 291 290 290
223 224 224 224 224 223 224 224 226 228 229 231 233 235 239 243 245 245 246 247 249 251 253 256 260 265 267 269 271 272 272 271 272 275 278 282 287 292 294 293 293 294 294 294 294 295 294 294 295 298 300 301 301 300 301 303 305 307 308 309 310 311 311 311 311 310 310 309 309 308 309 309 310 309 309 310 309 307 304 302 299 296 292 289 289